This demonstration page uses our WeatherBlox Daily Observations layout. Learn more.

Left ArrowRight Arrow

31.31129, -92.44514

Hourly Observations for December 1, 2015

Temp ( °F °C ) Dew Point ( °F °C ) Humidity (%) Winds ( mph kmh ) Pressure ( in mb ) Visibility ( mi km ) Precip ( " mm )
12:22 am 00:22 Cloudy 60 15.6 60 15.6 100 100 NNW 5 7 29.97 1015 8 13 0.00 0.00
12:39 am 00:39 Cloudy 60 15.6 59 15 96 96 NW 8 13 29.97 1015 9 14 0.00 0.00
12:53 am 00:53 Cloudy 60 15.6 59 15 96 96 NW 7 11 29.99 1016 9 14 0.00 0.00
1:53 am 01:53 Cloudy with Light Rain 59 15 59 15 100 100 NNW 6 9 30.00 1016 3 5 0.00 0.03
2:22 am 02:22 Cloudy with Mist and Fog 58 14.4 58 14.4 100 100 NW 6 9 30.00 1016 4 6 0.01 0.25
2:44 am 02:44 Cloudy with Mist and Fog 58 14.4 57 13.9 97 97 NW 9 15 30.00 1016 5 8 0.01 0.25
2:53 am 02:53 Cloudy with Light Rain 57 13.9 57 13.9 100 100 NNW 12 19 29.99 1016 4 6 0.01 0.25
3:53 am 03:53 Cloudy with Mist and Fog 56 13.3 55 12.8 97 97 NNW 10 17 30.01 1016 5 8 0.00 0.03
4:33 am 04:33 Cloudy with Mist and Fog 55 12.8 55 12.8 100 100 NW 7 11 30.00 1016 4 6 0.00 0.00
4:53 am 04:53 Cloudy with Light Rain 55 12.8 55 12.8 100 100 NW 8 13 30.01 1016 3 5 0.00 0.03
5:09 am 05:09 Cloudy with Light Rain 54 12.2 54 12.2 100 100 NW 8 13 30.00 1016 2 3 0.01 0.25
5:27 am 05:27 Cloudy with Light Rain 54 12.2 54 12.2 100 100 NW 9 15 30.00 1016 3 5 0.02 0.51
5:53 am 05:53 Cloudy with Light Rain 53 11.7 53 11.7 100 100 NNW 7 11 30.01 1016 4 6 0.03 0.76
6:15 am 06:15 Cloudy with Light Rain 53 11.7 53 11.7 100 100 NNW 12 19 30.00 1016 5 8 0.01 0.25
6:33 am 06:33 Cloudy with Light Rain 53 11.7 53 11.7 100 100 NNW 8 13 30.00 1016 4 6 0.01 0.25
6:53 am 06:53 Cloudy with Light Rain 53 11.7 53 11.7 100 100 NNW 8 13 30.03 1017 4 6 0.02 0.51
7:21 am 07:21 Cloudy with Light Rain 53 11.7 53 11.7 100 100 NNW 7 11 30.03 1017 3 5 0.01 0.25
7:28 am 07:28 Cloudy with Light Rain 53 11.7 52 11.1 96 96 NNW 6 9 30.03 1017 3 5 0.02 0.51
7:36 am 07:36 Cloudy with Rain 53 11.7 53 11.7 100 100 NNW 6 9 30.03 1017 2 3 0.03 0.76
7:51 am 07:51 Cloudy with Light Rain 54 12 52 11 94 94 NNW 7 11 30.03 1017 3 5 0.04 1.02
7:53 am 07:53 Cloudy with Light Rain 53 11.7 53 11.7 100 100 NNW 6 9 30.04 1017 3 5 0.04 1.02
8:42 am 08:42 Cloudy with Light Rain 53 11.7 53 11.7 100 100 NNW 7 11 30.03 1017 2 3 0.01 0.25
8:53 am 08:53 Cloudy with Light Rain 53 11.7 52 11.1 96 96 N 6 9 30.05 1018 4 6 0.01 0.25
9:53 am 09:53 Cloudy with Light Rain 53 11.7 52 11.1 96 96 NNW 6 9 30.05 1018 5 8 0.01 0.25
10:53 am 10:53 Cloudy 53 11.7 52 11.1 96 96 NNW 7 11 30.03 1017 10 16 0.00 0.03
11:53 am 11:53 Cloudy 54 12.2 53 11.7 97 97 NNW 7 11 30.01 1016 10 16 0.01 0.25
12:53 pm 12:53 Cloudy 54 12.2 53 11.7 97 97 NNW 6 9 29.97 1015 10 16 0.00 0.00
1:53 pm 13:53 Cloudy 55 12.8 54 12.2 96 96 E 5 7 29.94 1014 10 16 0.00 0.00
2:53 pm 14:53 Cloudy 55 12.8 54 12.2 96 96 NNW 5 7 29.94 1014 10 16 0.00 0.00
3:53 pm 15:53 Cloudy 54 12.2 53 11.7 97 97 NW 10 17 29.96 1014 8 13 0.00 0.03
4:45 pm 16:45 Cloudy with Light Rain 54 12.2 53 11.7 97 97 NNW 7 11 29.97 1015 3 4 0.01 0.25
4:53 pm 16:53 Cloudy with Light Rain 54 12.2 53 11.7 97 97 N 5 7 29.96 1015 5 8 0.02 0.51
5:06 pm 17:06 Cloudy with Rain 53 11.7 53 11.7 100 100 NNW 7 11 29.97 1015 3 4 0.02 0.51
5:14 pm 17:14 Cloudy with Light Rain 53 11.7 53 11.7 100 100 NNW 6 9 29.97 1015 7 11 0.02 0.51
5:53 pm 17:53 Cloudy 53 11.7 53 11.7 100 100 VRB 3 6 29.96 1015 10 16 0.02 0.51
6:53 pm 18:53 Cloudy 53 11.7 52 11.1 96 96 N 5 7 29.98 1015 9 14 0.01 0.25
7:53 pm 19:53 Mostly Cloudy 53 11.7 53 11.7 100 100 NE 3 6 29.98 1015 8 13 0.00 0.00
8:53 pm 20:53 Cloudy 53 11.7 52 11.1 96 96 NNW 5 7 29.99 1016 8 13 0.00 0.00
9:53 pm 21:53 Cloudy 53 11.7 52 11.1 96 96 N 3 6 30.00 1016 7 11 0.00 0.00
10:30 pm 22:30 Cloudy with Mist and Fog 53 11.7 52 11.1 96 96 NNW 6 9 29.97 1015 6 10 0.00 0.00
10:53 pm 22:53 Cloudy 53 11.7 52 11.1 96 96 N 6 9 30.00 1016 8 13 0.00 0.00
11:00 pm 23:00 Cloudy 53 11.7 52 11.1 96 96 NNW 8 13 30.00 1016 8 13 0.00 0.00
11:31 pm 23:31 Cloudy 52 11.1 52 11.1 100 100 NNW 5 7 30.00 1016 7 11 0.00 0.00
11:53 pm 23:53 Cloudy 52 11.1 52 11.1 100 100 NW 6 9 30.02 1017 8 13 0.00 0.00

Powered by AerisWeather